RH
33 55 37 54 66 63 53 6 21 27 24 25 24 9 7 6 6 6 6 6 5 4 3 3 3 2 2 2 2 2 2 2 2
71 47 55 50 48 67 65 46 21 20 35 34 18 10 7 6 5 5 5 6 5 5 4 3 3 3 3 2 2 2 2 2 2
79 75 64 30 34 48 70 72 54 26 20 29 19 11 9 9 8 6 6 7 7 6 5 4 4 3 3 3 3 3 3 3 3
78 73 64 61 31 32 50 78 83 77 38 17 16 14 11 11 12 12 10 8 8 7 6 5 5 5 4 4 4 5 5 6 7
64 73 72 68 71 57 45 63 73 88 86 64 17 17 14 12 13 14 15 14 15 16 12 11 10 9 9 9 10 12 12 12 13
60 66 75 75 73 73 72 60 68 92 90 95 72 15 17 16 13 13 14 16 17 18 19 21 21 19 18 19 18 16 18 20 21
93 77 63 67 79 79 72 73 71 82 92 77 84 83 12 16 17 16 14 14 15 18 17 20 22 24 25 26 27 26 24 25 25
69 87 93 79 67 76 80 75 73 77 63 96 96 95 93 31 15 16 16 15 14 14 15 18 20 21 23 23 22 20 20 18 16
46 86 96 94 97 91 94 78 83 77 78 73 76 62 94 88 63 19 14 14 14 14 14 14 16 19 21 22 21 19 16 14 12
19 21 22 20 83 87 92 97 88 83 92 90 93 62 89 98 100 96 87 60 11 11 12 13 14 15 16 18 21 21 21 17 12
12 12 11 11 16 24 55 92 97 97 96 96 95 96 78 94 95 86 86 97 38 32 18 11 12 13 14 17 18 18 20 21 20
14 13 13 11 10 11 15 22 64 82 96 96 97 96 97 96 98 91 63 65 84 97 96 81 51 14 12 12 19 23 21 20 21
11 12 13 14 14 14 11 10 10 13 11 22 80 82 90 94 96 98 97 94 73 72 74 95 87 95 53 11 11 13 22 25 24
17 15 13 12 10 9 12 14 14 12 11 12 13 30 43 67 82 94 97 98 96 91 73 76 66 60 69 83 43 18 13 14 20
26 25 25 23 23 24 20 13 9 10 14 16 20 16 20 22 42 55 67 81 95 98 97 95 79 72 63 67 90 88 81 46 15
40 38 35 30 24 23 25 26 26 22 15 13 10 17 16 16 13 29 38 60 91 95 97 99 100 94 89 61 29 67 82 86 84
43 38 34 28 26 24 20 21 23 28 33 28 20 16 13 14 16 15 37 52 82 84 92 89 74 74 74 89 81 49 19 13 13
46 38 34 31 27 23 20 18 17 17 21 28 34 33 22 15 18 63 98 85 76 62 98 98 72 66 84 94 95 97 80 88 67
74 60 42 25 22 18 17 16 15 14 14 17 21 28 35 28 18 80 72 24 38 74 100 96 84 86 99 98 95 97 96 98 97
84 72 58 56 41 23 16 11 9 9 9 10 11 15 22 34 30 18 34 23 29 67 99 98 99 94 93 98 99 99 98 97 92
Wind_Speed
22 21 21 21 20 19 17 18 18 16 16 15 14 14 14 14 15 16 16 16 14 14 13 12 12 11 11 11 11 11 11 10 10
23 22 22 22 22 22 21 21 21 20 19 17 15 14 14 14 15 15 15 16 16 15 14 14 14 13 13 13 13 12 12 11 12
24 24 24 24 23 24 24 24 22 23 22 21 20 17 16 16 14 14 13 14 15 15 16 15 16 15 15 14 14 14 13 12 12
29 27 26 26 26 25 26 25 26 24 26 26 24 22 20 19 18 17 16 15 15 14 15 16 16 15 15 15 14 14 13 13 12
33 32 32 30 29 27 27 26 28 30 31 31 30 28 25 24 22 21 20 19 19 17 16 15 16 16 16 15 15 15 15 15 15
33 34 34 35 34 32 31 30 29 39 31 34 34 33 31 28 27 27 24 24 23 22 21 19 19 19 19 17 17 17 17 16 17
32 36 37 37 37 37 36 34 34 37 23 39 45 39 38 35 32 32 30 28 27 28 25 24 24 22 22 21 20 20 20 21 20
37 36 37 39 41 38 39 40 39 36 38 32 20 37 36 37 36 36 35 34 32 33 30 29 29 27 27 26 25 25 25 25 26
41 40 38 36 36 41 42 45 44 43 42 51 44 38 40 35 41 40 39 40 37 37 35 34 33 31 32 31 30 29 28 28 29
44 45 45 41 43 34 37 43 46 47 47 44 43 43 36 42 45 40 44 47 43 41 40 37 36 35 35 34 34 33 32 31 31
41 43 42 38 37 39 38 34 43 45 50 49 46 46 46 52 42 48 46 43 47 44 44 42 40 39 39 38 38 37 36 36 35
43 42 40 36 39 41 42 44 49 45 46 44 42 32 44 41 35 51 53 53 45 50 40 45 47 42 43 42 40 39 39 38 37
44 44 44 42 40 40 40 44 47 49 48 51 52 50 42 33 26 28 41 43 48 45 49 46 48 41 48 41 40 41 41 40 40
44 44 44 43 41 42 44 45 45 45 45 39 36 40 39 43 46 38 29 34 42 50 52 49 48 48 45 45 47 47 41 41 43
45 45 46 45 44 43 45 46 46 46 44 42 39 34 35 37 38 37 40 36 25 37 48 50 55 53 45 44 46 46 49 52 45
46 46 47 46 47 48 47 48 49 46 44 42 39 35 34 33 32 36 36 29 40 31 26 29 33 40 45 45 42 46 49 49 51
47 47 47 48 48 49 49 49 49 50 47 44 42 39 35 35 36 34 34 35 36 30 32 30 29 33 37 42 47 50 45 44 46
47 48 50 51 51 52 51 51 51 49 48 46 45 43 39 36 37 37 38 34 34 33 35 38 34 34 32 35 34 40 48 52 54
53 51 46 46 47 47 49 50 51 52 50 48 43 43 43 41 39 42 41 37 36 38 43 48 38 37 42 36 40 40 38 40 43
45 46 48 49 48 47 43 43 45 48 48 47 44 44 44 44 43 44 45 42 41 45 50 47 40 40 45 46 45 41 47 42 42
Wind_Direction
254 255 254 247 245 242 241 238 234 239 242 247 246 245 242 241 241 239 238 241 235 236 232 231 231 227 227 226 227 224 224 227 227
250 253 251 249 245 242 240 241 240 238 242 243 247 242 239 238 236 237 236 236 235 235 232 230 229 228 226 222 224 226 226 226 229
247 247 249 251 248 244 241 240 242 242 243 242 243 241 234 235 229 227 226 227 228 226 230 229 228 225 226 223 220 222 224 226 229
253 250 250 250 249 245 241 239 241 241 244 244 241 240 236 233 232 228 226 221 224 223 225 228 228 223 221 224 221 220 220 224 227
250 249 249 250 250 249 246 238 240 241 241 242 237 236 233 234 233 233 232 230 228 228 226 226 230 228 224 223 230 228 229 230 234
250 249 247 248 248 249 248 244 234 241 241 252 244 234 236 233 235 236 233 235 234 234 231 227 232 234 235 231 233 238 241 241 241
252 249 248 246 247 249 249 247 249 249 245 247 248 240 235 233 234 240 239 236 236 240 238 236 234 235 239 239 238 239 241 246 247
258 258 252 250 248 247 250 249 249 246 235 237 230 236 245 233 237 239 243 243 239 240 238 239 240 239 240 241 243 246 247 251 254
258 261 259 262 249 243 250 251 250 247 244 245 260 247 244 231 231 242 243 246 244 245 244 241 243 242 242 244 246 248 251 254 257
259 258 262 263 266 256 263 243 247 251 254 252 254 251 244 246 241 234 244 241 243 243 247 246 245 247 247 247 247 250 253 256 258
260 262 264 263 261 262 262 256 245 242 251 246 239 251 249 252 253 244 239 239 238 243 248 244 244 245 246 247 248 248 250 253 256
256 258 260 258 258 258 258 255 259 260 246 258 236 248 251 240 247 247 241 250 247 244 244 247 248 247 248 247 248 250 250 252 254
255 257 259 260 257 259 258 259 263 263 268 269 278 287 277 264 238 241 241 250 251 250 251 253 250 248 242 250 250 252 254 256 256
253 253 254 258 260 259 260 260 260 264 266 268 271 277 279 281 283 262 253 245 245 245 249 254 254 255 254 250 247 249 253 257 257
251 251 251 251 255 258 261 264 265 266 269 270 267 270 269 270 273 278 281 276 260 245 244 249 252 254 260 252 250 254 253 251 254
253 252 250 251 252 255 256 259 263 265 265 266 266 264 264 266 262 262 265 265 266 243 250 244 246 252 248 249 244 249 252 254 258
255 255 256 254 255 257 258 259 259 263 264 264 263 259 255 257 258 258 247 249 260 257 259 248 252 251 253 253 253 247 247 251 254
250 252 253 253 254 257 259 261 262 263 264 264 263 260 257 252 255 244 250 240 249 252 240 247 254 249 253 252 254 257 250 255 253
249 247 251 255 255 254 255 257 259 261 265 264 262 260 256 250 247 244 244 246 244 237 239 243 252 247 251 251 258 262 257 264 264
258 255 254 255 257 258 258 258 257 258 259 262 262 260 255 251 246 242 244 243 241 234 241 239 243 245 248 249 250 258 254 265 261